�N����,����,�~����,�C��,���x,�C��,����,���ϕ���,�ő�u�ԕ���,�ő厞����,���˗�,�I�_���x,�n�����x,�ő啗���N��,DTYPE
"23/03/23","00:10",0.0,17.6,78.4,1010.2,98.1,1.1,2.1,102.2,0.00,13.8,14.3,"00:09:12",1
"23/03/23","00:20",0.0,17.6,78.3,1010.0,86.9,0.7,2.5,110.0,0.00,13.8,14.2,"00:10:16",1
"23/03/23","00:30",0.0,17.6,78.6,1010.0,79.9,0.7,1.7,124.5,0.00,13.9,14.2,"00:20:08",1
"23/03/23","00:40",0.0,17.8,78.5,1009.7,94.3,1.0,2.4,95.9,0.00,14.1,14.2,"00:34:08",1
"23/03/23","00:50",0.0,17.9,78.4,1009.7,106.8,1.0,2.2,109.7,0.00,14.1,14.2,"00:46:00",1
"23/03/23","01:00",0.0,18.0,78.5,1009.7,113.3,1.2,3.1,110.8,0.00,14.2,14.3,"00:59:36",1
"23/03/23","01:10",0.0,18.0,78.2,1010.0,106.3,1.3,3.2,117.8,0.00,14.2,14.2,"01:05:28",1
"23/03/23","01:20",0.0,18.0,78.4,1009.5,112.0,1.7,3.3,126.1,0.00,14.2,14.1,"01:19:44",1
"23/03/23","01:30",0.0,18.0,78.4,1009.3,112.8,1.6,3.2,119.5,0.00,14.2,14.0,"01:27:44",1
"23/03/23","01:40",0.0,18.2,78.2,1009.7,107.5,2.0,4.3,119.8,0.00,14.4,14.3,"01:34:56",1
"23/03/23","01:50",0.0,18.2,78.4,1009.3,109.9,2.2,3.6,119.0,0.00,14.4,14.3,"01:44:24",1
"23/03/23","02:00",0.0,18.1,78.6,1009.7,111.2,1.7,3.2,125.3,0.00,14.4,14.3,"01:55:20",1
"23/03/23","02:10",0.0,18.2,78.3,1009.5,105.6,1.7,3.2,110.2,0.00,14.4,14.2,"02:08:08",1
"23/03/23","02:20",0.0,18.3,77.7,1009.3,100.9,2.2,4.1,114.5,0.00,14.4,14.1,"02:15:28",1
"23/03/23","02:30",0.0,18.3,77.0,1009.5,104.8,2.1,3.7,119.9,0.00,14.2,14.2,"02:20:32",1
"23/03/23","02:40",0.0,18.4,76.3,1009.7,107.6,2.0,3.6,116.9,0.00,14.2,14.2,"02:38:16",1
"23/03/23","02:50",0.0,18.4,75.6,1009.7,109.8,2.1,4.7,116.9,0.00,14.1,14.2,"02:44:00",1
"23/03/23","03:00",0.0,18.3,75.4,1009.5,106.8,2.2,4.1,133.7,0.00,13.9,14.0,"02:50:32",1
"23/03/23","03:10",0.0,18.3,75.2,1009.5,99.1,2.0,3.9,111.9,0.00,13.9,14.1,"03:07:20",1
"23/03/23","03:20",0.0,18.4,75.1,1009.0,101.5,1.7,3.9,99.1,0.00,14.0,13.9,"03:15:20",1
"23/03/23","03:30",0.0,18.3,75.2,1009.0,90.5,1.6,2.8,121.0,0.00,13.9,14.0,"03:24:32",1
"23/03/23","03:40",0.0,18.3,75.3,1008.6,89.1,1.2,4.1,111.6,0.00,13.9,14.1,"03:31:44",1
"23/03/23","03:50",0.0,18.3,75.8,1008.1,95.8,1.3,2.9,107.7,0.00,14.0,13.9,"03:48:08",1
"23/03/23","04:00",0.0,18.2,75.8,1008.3,94.1,1.7,4.0,100.2,0.00,13.9,13.9,"03:54:48",1
"23/03/23","04:10",0.0,18.3,76.2,1008.1,97.2,1.8,3.2,86.0,0.00,14.1,13.9,"04:06:32",1
"23/03/23","04:20",0.0,18.3,76.7,1007.8,100.9,2.0,4.8,121.4,0.00,14.2,14.0,"04:11:04",1
"23/03/23","04:30",0.0,18.2,77.2,1007.6,106.3,1.8,4.5,107.2,0.00,14.2,14.0,"04:28:48",1
"23/03/23","04:40",0.0,18.2,77.3,1007.1,98.9,2.0,4.0,114.2,0.00,14.2,14.1,"04:34:56",1
"23/03/23","04:50",0.0,18.2,77.5,1007.4,105.0,2.0,3.9,110.4,0.00,14.2,14.1,"04:44:32",1
"23/03/23","05:00",0.0,18.1,77.9,1007.1,114.9,2.1,3.6,112.1,0.00,14.2,14.0,"04:52:56",1
"23/03/23","05:10",0.0,18.2,78.6,1007.6,106.1,2.1,4.7,114.8,0.00,14.5,14.0,"05:08:48",1
"23/03/23","05:20",0.0,18.1,79.4,1007.4,98.8,2.2,4.1,130.0,0.00,14.5,13.9,"05:11:44",1
"23/03/23","05:30",0.0,18.1,79.9,1007.6,105.1,2.5,4.7,115.8,0.00,14.6,13.9,"05:23:04",1
"23/03/23","05:40",0.0,18.0,80.3,1007.1,106.6,2.3,4.9,120.2,0.00,14.6,14.2,"05:38:40",1
"23/03/23","05:50",0.0,18.0,80.4,1007.1,101.8,2.7,5.9,111.6,0.00,14.6,13.8,"05:41:44",1
"23/03/23","06:00",0.0,18.0,80.5,1006.9,108.2,2.8,4.9,110.6,0.00,14.6,14.0,"05:50:48",1
"23/03/23","06:10",0.0,17.9,80.5,1006.9,91.2,2.0,4.9,113.9,0.00,14.5,13.8,"06:06:24",1
"23/03/23","06:20",0.0,17.9,80.5,1007.1,92.7,2.0,4.7,121.0,0.00,14.5,14.1,"06:15:52",1
"23/03/23","06:30",0.0,17.9,80.6,1007.1,99.6,2.5,6.3,116.5,0.00,14.6,13.8,"06:29:52",1
"23/03/23","06:40",0.0,17.8,80.4,1006.9,104.7,2.3,4.9,115.5,0.00,14.4,13.8,"06:30:08",1
"23/03/23","06:50",0.0,17.8,80.4,1007.4,105.6,2.3,4.7,101.4,0.00,14.4,14.0,"06:46:32",1
"23/03/23","07:00",0.0,17.9,80.4,1007.1,107.5,2.5,4.9,119.3,0.00,14.5,13.9,"06:52:24",1
"23/03/23","07:10",0.0,17.8,80.4,1007.1,106.1,2.0,4.3,115.5,0.00,14.4,13.9,"07:08:40",1
"23/03/23","07:20",0.0,17.7,80.4,1007.6,101.5,1.6,3.1,108.5,0.00,14.3,14.1,"07:10:08",1
"23/03/23","07:30",0.0,17.7,80.5,1007.4,99.3,1.8,3.4,125.7,0.00,14.3,13.9,"07:20:40",1
"23/03/23","07:40",0.0,17.8,80.4,1006.9,98.5,2.1,5.2,116.6,0.00,14.4,14.0,"07:37:52",1
"23/03/23","07:50",0.0,17.9,80.1,1006.7,106.7,2.8,5.8,120.4,0.00,14.5,13.9,"07:40:08",1
"23/03/23","08:00",0.0,17.9,79.8,1006.9,94.8,1.8,3.9,113.1,0.00,14.4,13.9,"07:55:28",1
"23/03/23","08:10",0.0,17.9,79.5,1006.7,95.6,1.6,3.9,117.4,0.00,14.3,13.8,"08:08:56",1
"23/03/23","08:20",0.0,17.9,79.5,1006.2,110.1,2.2,5.2,120.7,0.00,14.3,13.9,"08:16:32",1
"23/03/23","08:30",0.0,18.0,79.1,1006.7,101.4,2.5,5.4,118.1,0.00,14.4,14.0,"08:27:36",1
"23/03/23","08:40",0.0,17.9,79.1,1006.7,106.4,2.1,4.7,86.2,0.00,14.3,14.0,"08:39:44",1
"23/03/23","08:50",0.0,17.9,79.0,1006.7,108.5,2.6,5.0,118.8,0.00,14.2,14.2,"08:45:28",1
"23/03/23","09:00",0.0,17.9,79.1,1006.7,105.6,2.0,3.9,106.2,0.00,14.3,14.0,"08:52:00",1
"23/03/23","09:10",0.0,18.0,79.0,1006.4,99.2,2.0,4.1,105.6,0.00,14.3,14.0,"09:04:40",1
"23/03/23","09:20",0.0,18.0,78.9,1006.4,95.8,1.5,3.1,121.8,0.01,14.3,13.9,"09:15:12",1
"23/03/23","09:30",0.0,18.0,78.9,1006.7,93.7,1.6,4.1,121.1,0.00,14.3,13.9,"09:22:56",1
"23/03/23","09:40",0.0,18.1,78.8,1006.2,101.1,1.6,3.3,111.7,0.01,14.4,14.0,"09:38:00",1
"23/03/23","09:50",0.0,18.1,78.7,1006.2,102.7,2.1,3.7,102.2,0.01,14.4,13.9,"09:44:08",1
"23/03/23","10:00",0.0,18.1,78.5,1006.0,108.1,2.5,4.8,110.0,0.01,14.3,14.0,"09:55:36",1
"23/03/23","10:10",0.0,18.2,78.3,1005.7,97.6,1.7,3.6,117.4,0.01,14.4,14.1,"10:00:24",1
"23/03/23","10:20",0.0,18.3,78.2,1006.0,93.7,2.1,4.7,84.2,0.01,14.5,13.7,"10:14:08",1
"23/03/23","10:30",0.0,18.3,78.3,1005.5,97.1,1.6,3.3,110.9,0.01,14.5,14.0,"10:25:28",1
"23/03/23","10:40",0.0,18.2,78.9,1005.5,91.4,1.6,3.2,108.2,0.01,14.5,14.0,"10:38:56",1
"23/03/23","10:50",0.0,18.0,79.6,1005.2,96.3,1.6,3.4,99.3,0.01,14.5,14.1,"10:45:04",1
"23/03/23","11:00",0.0,18.0,80.3,1004.8,93.6,1.7,3.6,133.8,0.01,14.6,13.9,"10:55:20",1
"23/03/23","11:10",0.0,17.9,80.9,1005.0,99.1,2.0,3.6,115.2,0.01,14.6,14.1,"11:00:40",1
"23/03/23","11:20",0.4,17.7,82.3,1004.5,93.9,2.2,4.2,107.0,0.03,14.7,14.2,"11:13:28",1
"23/03/23","11:30",0.2,17.4,84.1,1004.3,94.6,1.7,3.5,116.4,0.05,14.7,14.1,"11:24:56",1
"23/03/23","11:40",0.2,17.2,85.8,1004.3,94.8,1.6,3.5,111.4,0.04,14.8,14.1,"11:31:04",1
"23/03/23","11:50",0.4,17.1,87.1,1004.1,79.7,1.6,4.2,105.7,0.04,15.0,14.1,"11:41:12",1
"23/03/23","12:00",0.8,17.0,88.1,1004.1,100.0,1.0,2.8,106.4,0.02,15.1,14.0,"11:59:16",1
"23/03/23","12:10",0.6,16.8,88.9,1004.1,54.2,0.8,2.5,117.3,0.02,15.0,14.1,"12:00:48",1
"23/03/23","12:20",0.8,16.8,89.7,1004.3,27.5,1.0,2.8,32.1,0.02,15.1,14.0,"12:15:54",1
"23/03/23","12:30",1.0,16.8,90.2,1004.3,344.2,0.3,1.0,3.5,0.02,15.2,14.0,"12:20:08",1
"23/03/23","12:40",0.4,16.9,90.7,1004.1,32.8,0.8,1.8,111.9,0.03,15.4,14.0,"12:38:54",1
"23/03/23","12:50",0.6,16.8,91.3,1003.8,72.3,1.1,1.9,89.2,0.06,15.4,13.9,"12:44:10",1
"23/03/23","13:00",0.4,16.9,91.6,1003.6,56.0,0.6,1.6,117.3,0.05,15.6,14.1,"12:56:50",1
"23/03/23","13:10",0.6,16.9,91.9,1003.4,63.2,0.7,2.1,53.1,0.04,15.6,14.3,"13:09:50",1
"23/03/23","13:20",0.8,16.9,92.2,1002.9,52.5,1.0,2.5,119.5,0.04,15.7,14.2,"13:11:04",1
"23/03/23","13:30",0.4,16.9,92.5,1002.6,63.0,1.1,3.5,104.3,0.06,15.7,14.2,"13:21:12",1
"23/03/23","13:40",0.2,17.1,92.6,1002.2,125.3,0.7,2.0,134.0,0.07,15.9,14.1,"13:30:02",1
"23/03/23","13:50",0.4,17.2,92.8,1002.2,151.8,0.6,1.3,114.1,0.06,16.1,14.2,"13:40:56",1
"23/03/23","14:00",0.6,17.3,92.8,1002.2,196.4,0.6,1.2,121.3,0.05,16.2,14.1,"13:50:32",1
"23/03/23","14:10",0.8,17.2,93.0,1001.7,258.7,1.3,2.1,248.2,0.04,16.1,14.3,"14:02:10",1
"23/03/23","14:20",0.8,17.4,93.2,1001.5,269.2,0.7,1.4,313.3,0.07,16.3,14.2,"14:11:54",1
"23/03/23","14:30",0.6,17.3,93.4,1001.5,283.0,1.2,2.1,317.7,0.05,16.3,14.2,"14:27:06",1
"23/03/23","14:40",0.4,17.3,93.6,1001.7,297.8,1.6,2.1,311.4,0.05,16.3,14.2,"14:33:06",1
"23/03/23","14:50",0.6,17.2,93.8,1001.5,286.5,1.6,2.2,267.3,0.02,16.2,14.3,"14:42:34",1
"23/03/23","15:00",0.6,17.1,94.0,1001.2,305.9,1.1,1.7,330.1,0.03,16.2,14.3,"14:59:36",1
"23/03/23","15:10",0.6,17.1,94.2,1001.0,315.9,1.3,2.4,317.7,0.02,16.2,14.5,"15:05:46",1
"23/03/23","15:20",0.4,17.1,94.3,1000.5,293.0,1.1,1.4,300.3,0.02,16.2,14.5,"15:15:04",1
"23/03/23","15:30",0.2,17.1,94.4,1000.5,291.1,0.6,1.2,328.3,0.02,16.2,14.6,"15:22:56",1
"23/03/23","15:40",0.0,17.1,94.6,1000.0,273.4,0.8,1.8,251.9,0.04,16.3,14.5,"15:35:28",1
"23/03/23","15:50",0.2,17.3,94.8,999.8,262.0,1.3,2.4,254.6,0.03,16.5,14.4,"15:46:08",1
"23/03/23","16:00",0.0,17.2,94.9,999.3,295.0,1.3,2.6,260.5,0.03,16.4,14.4,"15:58:08",1
"23/03/23","16:10",0.0,17.2,95.1,999.3,287.1,1.5,3.4,247.3,0.07,16.4,14.4,"16:01:12",1
"23/03/23","16:20",0.0,17.4,95.2,999.3,275.7,1.5,2.5,262.5,0.06,16.7,14.6,"16:19:28",1
"23/03/23","16:30",0.0,17.4,95.3,999.3,262.4,1.3,2.6,262.5,0.06,16.7,14.4,"16:27:44",1
"23/03/23","16:40",0.0,17.6,95.3,999.3,303.0,1.2,2.1,307.1,0.04,16.9,14.5,"16:34:24",1
"23/03/23","16:50",0.0,17.5,95.4,998.9,291.7,1.3,1.9,302.9,0.02,16.8,14.3,"16:41:28",1
"23/03/23","17:00",0.0,17.4,95.4,999.1,312.7,1.3,2.2,313.2,0.01,16.7,14.4,"16:59:04",1
"23/03/23","17:10",0.0,17.5,95.6,998.9,323.6,1.3,2.7,318.6,0.00,16.8,14.6,"17:03:20",1
"23/03/23","17:20",0.0,17.5,95.6,998.9,284.1,0.7,1.1,261.5,0.00,16.8,14.6,"17:14:24",1
"23/03/23","17:30",0.0,17.5,95.7,998.6,299.2,0.8,1.6,267.4,0.00,16.8,14.5,"17:28:48",1
"23/03/23","17:40",0.0,17.4,95.7,998.6,290.6,1.0,1.4,304.2,0.00,16.7,14.4,"17:37:52",1
"23/03/23","17:50",0.0,17.5,95.8,998.6,297.0,1.0,1.4,264.2,0.00,16.9,14.6,"17:40:32",1
"23/03/23","18:00",0.0,17.5,95.9,998.6,336.9,1.2,2.1,340.7,0.00,16.9,14.5,"17:52:56",1
"23/03/23","18:10",0.0,17.6,96.0,998.6,320.6,1.1,1.7,312.1,0.00,17.0,14.6,"18:05:04",1
"23/03/23","18:20",0.0,17.5,96.0,999.1,275.6,1.0,1.4,297.5,0.00,16.9,14.5,"18:17:04",1
"23/03/23","18:30",0.0,17.3,96.0,999.1,284.3,0.8,1.6,293.8,0.00,16.7,14.4,"18:22:32",1
"23/03/23","18:40",0.0,17.3,96.1,999.1,316.6,0.8,1.4,327.3,0.00,16.7,14.5,"18:36:48",1
"23/03/23","18:50",0.0,17.2,96.2,998.9,315.9,1.5,1.9,314.8,0.00,16.6,14.6,"18:41:44",1
"23/03/23","19:00",0.0,17.2,96.3,998.9,316.6,1.2,1.7,319.4,0.00,16.6,14.4,"18:51:20",1
"23/03/23","19:10",0.0,17.1,96.4,999.3,292.3,1.0,1.3,300.9,0.00,16.6,14.7,"19:05:20",1
"23/03/23","19:20",0.0,17.1,96.4,999.1,315.5,0.7,1.4,311.9,0.00,16.6,14.5,"19:12:00",1
"23/03/23","19:30",0.0,17.1,96.5,998.9,294.3,1.0,1.4,314.4,0.00,16.6,14.4,"19:22:56",1
"23/03/23","19:40",0.0,17.1,96.6,998.6,330.1,0.7,1.4,322.7,0.00,16.6,14.5,"19:34:08",1
"23/03/23","19:50",0.0,17.1,96.6,999.1,323.0,0.6,1.3,335.0,0.00,16.6,14.5,"19:47:20",1
"23/03/23","20:00",0.0,17.0,96.7,998.9,1.0,0.7,1.6,332.6,0.00,16.5,14.6,"19:52:48",1
"23/03/23","20:10",0.0,17.0,96.7,999.1,289.5,1.3,2.0,320.5,0.00,16.5,14.5,"20:06:32",1
"23/03/23","20:20",0.0,17.0,96.8,999.1,283.5,1.0,1.4,321.2,0.00,16.5,14.4,"20:15:20",1
"23/03/23","20:30",0.0,17.0,96.8,999.1,286.0,0.8,1.6,316.3,0.00,16.5,14.4,"20:26:32",1
"23/03/23","20:40",0.0,17.0,96.9,999.1,315.3,1.2,1.9,332.0,0.00,16.5,14.7,"20:36:08",1
"23/03/23","20:50",0.0,17.0,97.0,999.1,313.3,0.6,1.3,287.8,0.00,16.6,14.5,"20:49:36",1
"23/03/23","21:00",0.4,17.0,97.0,999.3,313.7,1.3,1.8,317.9,0.00,16.6,14.5,"20:55:44",1
"23/03/23","21:10",2.0,16.9,97.0,999.6,340.8,1.1,2.1,326.7,0.00,16.5,14.7,"21:04:56",1
"23/03/23","21:20",0.6,16.9,97.1,999.6,246.8,0.8,1.9,246.5,0.00,16.5,14.5,"21:15:46",1
"23/03/23","21:30",0.4,17.0,97.1,999.8,2.3,0.7,1.1,289.8,0.00,16.6,14.4,"21:20:10",1
"23/03/23","21:40",0.0,16.9,97.2,999.8,155.3,0.5,1.0,133.1,0.00,16.5,14.6,"21:33:44",1
"23/03/23","21:50",0.0,17.1,97.3,1000.3,198.6,1.0,1.8,170.4,0.00,16.7,14.6,"21:45:26",1
"23/03/23","22:00",0.0,17.1,97.2,1000.3,258.0,1.2,1.6,241.3,0.00,16.7,14.7,"21:51:30",1
"23/03/23","22:10",0.2,17.1,97.2,1000.3,293.3,1.1,1.6,280.4,0.00,16.7,14.5,"22:02:22",1
"23/03/23","22:20",0.0,17.0,97.3,1000.3,345.9,1.0,2.0,333.8,0.00,16.6,14.6,"22:17:36",1
"23/03/23","22:30",0.0,16.8,97.4,1000.3,225.5,0.5,1.3,308.9,0.00,16.4,14.5,"22:29:42",1
"23/03/23","22:40",0.0,16.8,97.4,1000.5,274.5,0.7,2.6,342.3,0.00,16.4,14.5,"22:35:36",1
"23/03/23","22:50",0.0,16.9,97.4,1000.5,336.2,0.7,2.9,315.0,0.00,16.5,14.5,"22:48:50",1
"23/03/23","23:00",0.0,16.8,97.5,1000.3,21.9,0.8,1.8,347.9,0.00,16.4,14.7,"22:55:46",1
"23/03/23","23:10",0.0,16.8,97.6,1000.5,264.1,0.8,1.7,318.4,0.00,16.5,14.7,"23:03:54",1
"23/03/23","23:20",0.0,16.8,97.6,1000.5,298.6,1.0,1.7,301.3,0.00,16.5,14.6,"23:15:56",1
"23/03/23","23:30",0.0,17.0,97.6,1000.8,305.7,1.1,2.8,321.8,0.00,16.7,14.7,"23:28:36",1
"23/03/23","23:40",0.0,17.0,97.7,1000.8,232.8,1.2,2.9,308.3,0.00,16.7,14.4,"23:37:22",1
"23/03/23","23:50",0.0,17.3,97.7,1000.5,63.4,1.1,2.7,106.5,0.00,17.0,14.6,"23:47:44",1
"23/03/23","24:00",0.0,17.4,97.7,1000.5,69.4,1.3,2.9,113.2,0.00,17.1,14.6,"23:51:04",1
